Year,Month,Day,Hour,Minute,Value (Times are PST for windspeed in km/hr)
2015,10,08,00,00,18.30
2015,10,08,00,01,10.10
2015,10,08,00,02,19.50
2015,10,08,00,03,16.70
2015,10,08,00,04,13.30
2015,10,08,00,05,17.50
2015,10,08,00,06,18.80
2015,10,08,00,07,9.10
2015,10,08,00,08,20.10
2015,10,08,00,09,6.70
2015,10,08,00,10,10.00
2015,10,08,00,11,15.60
2015,10,08,00,12,10.20
2015,10,08,00,13,8.60
2015,10,08,00,14,10.10
2015,10,08,00,15,15.30
2015,10,08,00,16,9.60
2015,10,08,00,17,8.80
2015,10,08,00,18,7.80
2015,10,08,00,19,11.90
2015,10,08,00,20,15.60
2015,10,08,00,21,14.90
2015,10,08,00,22,7.90
2015,10,08,00,23,11.80
2015,10,08,00,24,9.40
2015,10,08,00,25,14.00
2015,10,08,00,26,7.70
2015,10,08,00,27,17.10
2015,10,08,00,28,13.00
2015,10,08,00,29,16.30
2015,10,08,00,30,10.30
2015,10,08,00,31,8.80
2015,10,08,00,32,10.40
2015,10,08,00,33,13.60
2015,10,08,00,34,11.20
2015,10,08,00,35,9.20
2015,10,08,00,36,8.20
2015,10,08,00,37,12.60
2015,10,08,00,38,5.10
2015,10,08,00,39,7.10
2015,10,08,00,40,12.80
2015,10,08,00,41,13.90
2015,10,08,00,42,14.30
2015,10,08,00,43,9.70
2015,10,08,00,44,5.90
2015,10,08,00,45,18.20
2015,10,08,00,46,4.10
2015,10,08,00,47,5.10
2015,10,08,00,48,4.40
2015,10,08,00,49,4.60
2015,10,08,00,50,13.40
2015,10,08,00,51,7.40
2015,10,08,00,52,10.30
2015,10,08,00,53,11.50
2015,10,08,00,54,5.90
2015,10,08,00,55,6.80
2015,10,08,00,56,9.20
2015,10,08,00,57,4.90
2015,10,08,00,58,7.40
2015,10,08,00,59,6.00
2015,10,08,01,00,13.00
2015,10,08,01,01,10.90
2015,10,08,01,02,8.40
2015,10,08,01,03,5.30
2015,10,08,01,04,6.10
2015,10,08,01,05,3.80
2015,10,08,01,06,4.70
2015,10,08,01,07,4.30
2015,10,08,01,08,5.50
2015,10,08,01,09,9.20
2015,10,08,01,10,10.20
2015,10,08,01,11,5.30
2015,10,08,01,12,8.60
2015,10,08,01,13,6.70
2015,10,08,01,14,6.70
2015,10,08,01,15,6.80
2015,10,08,01,16,7.80
2015,10,08,01,17,6.00
2015,10,08,01,18,6.90
2015,10,08,01,19,10.40
2015,10,08,01,20,11.50
2015,10,08,01,21,13.60
2015,10,08,01,22,11.90
2015,10,08,01,23,5.80
2015,10,08,01,24,6.20
2015,10,08,01,25,6.30
2015,10,08,01,26,3.90
2015,10,08,01,27,3.60
2015,10,08,01,28,10.70
2015,10,08,01,29,15.80
2015,10,08,01,30,10.30
2015,10,08,01,31,7.60
2015,10,08,01,32,9.40
2015,10,08,01,33,8.30
2015,10,08,01,34,8.90
2015,10,08,01,35,12.30
2015,10,08,01,36,9.50
2015,10,08,01,37,5.80
2015,10,08,01,38,3.80
2015,10,08,01,39,12.00
2015,10,08,01,40,12.60
2015,10,08,01,41,9.30
2015,10,08,01,42,8.60
2015,10,08,01,43,15.90
2015,10,08,01,44,14.80
2015,10,08,01,45,11.50
2015,10,08,01,46,4.90
2015,10,08,01,47,10.60
2015,10,08,01,48,4.30
2015,10,08,01,49,6.00
2015,10,08,01,50,7.20
2015,10,08,01,51,8.80
2015,10,08,01,52,7.10
2015,10,08,01,53,4.90
2015,10,08,01,54,3.90
2015,10,08,01,55,10.10
2015,10,08,01,56,15.60
2015,10,08,01,57,10.10
2015,10,08,01,58,6.20
2015,10,08,01,59,11.10
2015,10,08,02,00,16.10
2015,10,08,02,01,6.00
2015,10,08,02,02,10.50
2015,10,08,02,03,7.50
2015,10,08,02,04,12.90
2015,10,08,02,05,13.70
2015,10,08,02,06,10.80
2015,10,08,02,07,7.90
2015,10,08,02,08,6.80
2015,10,08,02,09,10.50
2015,10,08,02,10,13.80
2015,10,08,02,11,12.50
2015,10,08,02,12,12.20
2015,10,08,02,13,9.10
2015,10,08,02,14,6.90
2015,10,08,02,15,8.70
2015,10,08,02,16,8.60
2015,10,08,02,17,6.40
2015,10,08,02,18,16.30
2015,10,08,02,19,24.00
2015,10,08,02,20,17.10
2015,10,08,02,21,16.70
2015,10,08,02,22,11.90
2015,10,08,02,23,16.90
2015,10,08,02,24,11.60
2015,10,08,02,25,11.60
2015,10,08,02,26,20.00
2015,10,08,02,27,7.90
2015,10,08,02,28,10.00
2015,10,08,02,29,15.70
2015,10,08,02,30,17.00
2015,10,08,02,31,9.40
2015,10,08,02,32,18.70
2015,10,08,02,33,11.00
2015,10,08,02,34,5.70
2015,10,08,02,35,19.50
2015,10,08,02,36,20.30
2015,10,08,02,37,14.40
2015,10,08,02,38,10.70
2015,10,08,02,39,10.60
2015,10,08,02,40,13.50
2015,10,08,02,41,12.50
2015,10,08,02,42,13.20
2015,10,08,02,43,8.30
2015,10,08,02,44,5.10
2015,10,08,02,45,4.90
2015,10,08,02,46,6.60
2015,10,08,02,47,5.10
2015,10,08,02,48,9.10
2015,10,08,02,49,12.80
2015,10,08,02,50,9.10
2015,10,08,02,51,6.00
2015,10,08,02,52,7.00
2015,10,08,02,53,6.40
2015,10,08,02,54,13.10
2015,10,08,02,55,18.20
2015,10,08,02,56,12.30
2015,10,08,02,57,19.90
2015,10,08,02,58,11.70
2015,10,08,02,59,13.80
2015,10,08,03,00,16.10
2015,10,08,03,01,15.60
2015,10,08,03,02,10.30
2015,10,08,03,03,11.20
2015,10,08,03,04,13.10
2015,10,08,03,05,10.10
2015,10,08,03,06,7.40
2015,10,08,03,07,10.30
2015,10,08,03,08,6.40
2015,10,08,03,09,11.60
2015,10,08,03,10,10.60
2015,10,08,03,11,8.80
2015,10,08,03,12,10.70
2015,10,08,03,13,8.00
2015,10,08,03,14,8.70
2015,10,08,03,15,11.60
2015,10,08,03,16,15.10
2015,10,08,03,17,7.80
2015,10,08,03,18,12.00
2015,10,08,03,19,7.80
2015,10,08,03,20,16.20
2015,10,08,03,21,16.90
2015,10,08,03,22,11.50
2015,10,08,03,23,7.50
2015,10,08,03,24,8.30
2015,10,08,03,25,11.00
2015,10,08,03,26,6.90
2015,10,08,03,27,11.40
2015,10,08,03,28,6.00
2015,10,08,03,29,7.30
2015,10,08,03,30,3.80
2015,10,08,03,31,11.30
2015,10,08,03,32,3.30
2015,10,08,03,33,5.60
2015,10,08,03,34,6.00
2015,10,08,03,35,3.70
2015,10,08,03,36,9.50
2015,10,08,03,37,10.00
2015,10,08,03,38,6.70
2015,10,08,03,39,4.30
2015,10,08,03,40,4.70
2015,10,08,03,41,6.50
2015,10,08,03,42,8.90
2015,10,08,03,43,9.00
2015,10,08,03,44,11.40
2015,10,08,03,45,8.50
2015,10,08,03,46,15.00
2015,10,08,03,47,11.30
2015,10,08,03,48,13.10
2015,10,08,03,49,9.60
2015,10,08,03,50,18.20
2015,10,08,03,51,13.70
2015,10,08,03,52,10.50
2015,10,08,03,53,3.70
2015,10,08,03,54,7.00
2015,10,08,03,55,7.00
2015,10,08,03,56,6.30
2015,10,08,03,57,9.20
2015,10,08,03,58,12.30
2015,10,08,03,59,10.00
2015,10,08,04,00,10.50
2015,10,08,04,01,12.50
2015,10,08,04,02,8.70
2015,10,08,04,03,17.20
2015,10,08,04,04,19.10
2015,10,08,04,05,5.80
2015,10,08,04,06,7.30
2015,10,08,04,07,8.30
2015,10,08,04,08,12.50
2015,10,08,04,09,22.60
2015,10,08,04,10,10.60
2015,10,08,04,11,5.70
2015,10,08,04,12,10.00
2015,10,08,04,13,15.00
2015,10,08,04,14,11.10
2015,10,08,04,15,12.50
2015,10,08,04,16,8.60
2015,10,08,04,17,7.80
2015,10,08,04,18,11.30
2015,10,08,04,19,12.80
2015,10,08,04,20,11.40
2015,10,08,04,21,11.30
2015,10,08,04,22,4.90
2015,10,08,04,23,12.30
2015,10,08,04,24,10.60
2015,10,08,04,25,13.00
2015,10,08,04,26,9.50
2015,10,08,04,27,5.30
2015,10,08,04,28,8.50
2015,10,08,04,29,4.30
2015,10,08,04,30,7.30
2015,10,08,04,31,9.60
2015,10,08,04,32,5.80
2015,10,08,04,33,3.50
2015,10,08,04,34,6.40
2015,10,08,04,35,9.20
2015,10,08,04,36,8.00
2015,10,08,04,37,5.40
2015,10,08,04,38,3.60
2015,10,08,04,39,5.40
2015,10,08,04,40,7.60
2015,10,08,04,41,5.80
2015,10,08,04,42,3.60
2015,10,08,04,43,6.50
2015,10,08,04,44,9.50
2015,10,08,04,45,4.10
2015,10,08,04,46,3.60
2015,10,08,04,47,3.20
2015,10,08,04,48,11.60
2015,10,08,04,49,12.50
2015,10,08,04,50,11.90
2015,10,08,04,51,11.10
2015,10,08,04,52,5.70
2015,10,08,04,53,4.20
2015,10,08,04,54,4.90
2015,10,08,04,55,6.00
2015,10,08,04,56,12.30
2015,10,08,04,57,11.20
2015,10,08,04,58,7.60
2015,10,08,04,59,8.70
2015,10,08,05,00,8.60
2015,10,08,05,01,8.90
2015,10,08,05,02,5.30
2015,10,08,05,03,6.30
2015,10,08,05,04,4.50
2015,10,08,05,05,6.60
2015,10,08,05,06,10.00
2015,10,08,05,07,5.80
2015,10,08,05,08,4.10
2015,10,08,05,09,6.80
2015,10,08,05,10,4.30
2015,10,08,05,11,3.40
2015,10,08,05,12,3.50
2015,10,08,05,13,10.20
2015,10,08,05,14,6.30
2015,10,08,05,15,7.60
2015,10,08,05,16,8.80
2015,10,08,05,17,8.70
2015,10,08,05,18,6.50
2015,10,08,05,19,4.60
2015,10,08,05,20,7.00
2015,10,08,05,21,9.50
2015,10,08,05,22,9.60
2015,10,08,05,23,11.40
2015,10,08,05,24,7.40
2015,10,08,05,25,5.80
2015,10,08,05,26,9.70
2015,10,08,05,27,4.80
2015,10,08,05,28,5.20
2015,10,08,05,29,12.90
2015,10,08,05,30,10.50
2015,10,08,05,31,9.80
2015,10,08,05,32,4.90
2015,10,08,05,33,5.50
2015,10,08,05,34,12.90
2015,10,08,05,35,11.20
2015,10,08,05,36,4.10
2015,10,08,05,37,10.20
2015,10,08,05,38,7.90
2015,10,08,05,39,6.80
2015,10,08,05,40,3.60
2015,10,08,05,41,5.00
2015,10,08,05,42,10.00
2015,10,08,05,43,12.50
2015,10,08,05,44,5.70
2015,10,08,05,45,7.30
2015,10,08,05,46,6.60
2015,10,08,05,47,9.30
2015,10,08,05,48,8.20
2015,10,08,05,49,2.90
2015,10,08,05,50,1.90
2015,10,08,05,51,5.00
2015,10,08,05,52,5.00
2015,10,08,05,53,4.00
2015,10,08,05,54,8.20
2015,10,08,05,55,12.10
2015,10,08,05,56,11.90
2015,10,08,05,57,11.90
2015,10,08,05,58,7.70
2015,10,08,05,59,5.50
2015,10,08,06,00,7.50
2015,10,08,06,01,6.70
2015,10,08,06,02,6.70
2015,10,08,06,03,8.70
2015,10,08,06,04,6.70
2015,10,08,06,05,8.50
2015,10,08,06,06,14.50
2015,10,08,06,07,11.30
2015,10,08,06,08,12.40
2015,10,08,06,09,11.60
2015,10,08,06,10,4.60
2015,10,08,06,11,6.60
2015,10,08,06,12,9.80
2015,10,08,06,13,6.90
2015,10,08,06,14,10.50
2015,10,08,06,15,12.30
2015,10,08,06,16,13.90
2015,10,08,06,17,8.70
2015,10,08,06,18,6.40
2015,10,08,06,19,12.10
2015,10,08,06,20,9.40
2015,10,08,06,21,12.20
2015,10,08,06,22,9.40
2015,10,08,06,23,6.90
2015,10,08,06,24,10.00
2015,10,08,06,25,15.10
2015,10,08,06,26,8.80
2015,10,08,06,27,9.10
2015,10,08,06,28,7.30
2015,10,08,06,29,8.50
2015,10,08,06,30,11.80
2015,10,08,06,31,9.20
2015,10,08,06,32,12.50
2015,10,08,06,33,9.90
2015,10,08,06,34,7.00
2015,10,08,06,35,12.80
2015,10,08,06,36,12.40
2015,10,08,06,37,6.10
2015,10,08,06,38,13.20
2015,10,08,06,39,10.60
2015,10,08,06,40,5.40
2015,10,08,06,41,11.70
2015,10,08,06,42,7.50
2015,10,08,06,43,11.20
2015,10,08,06,44,13.20
2015,10,08,06,45,13.90
2015,10,08,06,46,5.50
2015,10,08,06,47,4.10
2015,10,08,06,48,7.50
2015,10,08,06,49,8.00
2015,10,08,06,50,8.90
2015,10,08,06,51,9.70
2015,10,08,06,52,5.50
2015,10,08,06,53,4.30
2015,10,08,06,54,10.40
2015,10,08,06,55,3.90
2015,10,08,06,56,4.30
2015,10,08,06,57,7.00
2015,10,08,06,58,11.90
2015,10,08,06,59,2.80
2015,10,08,07,00,1.40
2015,10,08,07,01,4.90
2015,10,08,07,02,3.90
2015,10,08,07,03,2.90
2015,10,08,07,04,4.90
2015,10,08,07,05,5.40
2015,10,08,07,06,4.90
2015,10,08,07,07,7.70
2015,10,08,07,08,4.60
2015,10,08,07,09,6.40
2015,10,08,07,10,4.50
2015,10,08,07,11,3.50
2015,10,08,07,12,2.30
2015,10,08,07,13,2.60
2015,10,08,07,14,4.60
2015,10,08,07,15,4.50
2015,10,08,07,16,1.70
2015,10,08,07,17,0.50
2015,10,08,07,18,1.80
2015,10,08,07,19,1.10
2015,10,08,07,20,1.70
2015,10,08,07,21,8.60
2015,10,08,07,22,4.80
2015,10,08,07,23,8.20
2015,10,08,07,24,8.20
2015,10,08,07,25,1.50
2015,10,08,07,26,5.90
2015,10,08,07,27,6.30
2015,10,08,07,28,5.20
2015,10,08,07,29,3.50
2015,10,08,07,30,5.90
2015,10,08,07,31,4.70
2015,10,08,07,32,3.00
2015,10,08,07,33,2.80
2015,10,08,07,34,5.20
2015,10,08,07,35,3.80
2015,10,08,07,36,7.50
2015,10,08,07,37,6.00
2015,10,08,07,38,2.60
2015,10,08,07,39,7.00
2015,10,08,07,40,4.20
2015,10,08,07,41,6.80
2015,10,08,07,42,7.00
2015,10,08,07,43,8.80
2015,10,08,07,44,5.10
2015,10,08,07,45,4.30
2015,10,08,07,46,2.30
2015,10,08,07,47,3.30
2015,10,08,07,48,3.90
2015,10,08,07,49,1.50
2015,10,08,07,50,2.80
2015,10,08,07,51,3.80
2015,10,08,07,52,1.50
2015,10,08,07,53,0.60
2015,10,08,07,54,5.30
2015,10,08,07,55,4.40
2015,10,08,07,56,6.10
2015,10,08,07,57,4.30
2015,10,08,07,58,4.60
2015,10,08,07,59,7.00
2015,10,08,08,00,4.40
2015,10,08,08,01,4.40
2015,10,08,08,02,3.70
2015,10,08,08,03,4.20
2015,10,08,08,04,3.90
2015,10,08,08,05,3.80
2015,10,08,08,06,5.50
2015,10,08,08,07,5.80
2015,10,08,08,08,4.20
2015,10,08,08,09,1.70
2015,10,08,08,10,0.80
2015,10,08,08,11,2.70
2015,10,08,08,12,2.20
2015,10,08,08,13,2.00
2015,10,08,08,14,2.80
2015,10,08,08,15,2.60
2015,10,08,08,16,1.30
2015,10,08,08,17,1.20
2015,10,08,08,18,4.40
2015,10,08,08,19,3.80
2015,10,08,08,20,4.50
2015,10,08,08,21,2.90
2015,10,08,08,22,2.90
2015,10,08,08,23,5.20
2015,10,08,08,24,6.30
2015,10,08,08,25,3.50
2015,10,08,08,26,0.10
2015,10,08,08,27,4.40
2015,10,08,08,28,3.20
2015,10,08,08,29,3.60
2015,10,08,08,30,3.20
2015,10,08,08,31,2.20
2015,10,08,08,32,2.70
2015,10,08,08,33,1.60
2015,10,08,08,34,3.30
2015,10,08,08,35,2.30
2015,10,08,08,36,1.10
2015,10,08,08,37,2.60
2015,10,08,08,38,1.20
2015,10,08,08,39,5.10
2015,10,08,08,40,4.30
2015,10,08,08,41,2.60
2015,10,08,08,42,3.60
2015,10,08,08,43,2.90
2015,10,08,08,44,3.20
2015,10,08,08,45,2.70
2015,10,08,08,46,3.90
2015,10,08,08,47,3.60
2015,10,08,08,48,4.40
2015,10,08,08,49,4.70
2015,10,08,08,50,4.40
2015,10,08,08,51,2.60
2015,10,08,08,52,1.10
2015,10,08,08,53,1.50
2015,10,08,08,54,0.70
2015,10,08,08,55,5.90
2015,10,08,08,56,2.90
2015,10,08,08,57,2.70
2015,10,08,08,58,3.40
2015,10,08,08,59,3.90
2015,10,08,09,00,3.60
2015,10,08,09,01,6.60
2015,10,08,09,02,2.30
2015,10,08,09,03,3.50
2015,10,08,09,04,5.20
2015,10,08,09,05,4.50
2015,10,08,09,06,1.70
2015,10,08,09,07,2.20
2015,10,08,09,08,1.20
2015,10,08,09,09,3.00
2015,10,08,09,10,6.00
2015,10,08,09,11,6.70
2015,10,08,09,12,3.80
2015,10,08,09,13,3.90
2015,10,08,09,14,6.70
2015,10,08,09,15,13.90
2015,10,08,09,16,11.30
2015,10,08,09,17,7.00
2015,10,08,09,18,5.60
2015,10,08,09,19,11.00
2015,10,08,09,20,9.90
2015,10,08,09,21,10.00
2015,10,08,09,22,6.10
2015,10,08,09,23,4.90
2015,10,08,09,24,7.80
2015,10,08,09,25,12.00
2015,10,08,09,26,9.20
2015,10,08,09,27,4.50
2015,10,08,09,28,8.60
2015,10,08,09,29,12.90
2015,10,08,09,30,9.60
2015,10,08,09,31,6.40
2015,10,08,09,32,6.60
2015,10,08,09,33,7.50
2015,10,08,09,34,8.10
2015,10,08,09,35,6.30
2015,10,08,09,36,5.40
2015,10,08,09,37,9.60
2015,10,08,09,38,6.60
2015,10,08,09,39,6.50
2015,10,08,09,40,5.80
2015,10,08,09,41,5.20
2015,10,08,09,42,2.70
2015,10,08,09,43,4.20
2015,10,08,09,44,3.30
2015,10,08,09,45,2.50
2015,10,08,09,46,1.20
2015,10,08,09,47,3.30
2015,10,08,09,48,1.90
2015,10,08,09,49,2.50
2015,10,08,09,50,4.80
2015,10,08,09,51,3.30
2015,10,08,09,52,4.60
2015,10,08,09,53,4.70
2015,10,08,09,54,2.40
2015,10,08,09,55,3.20
2015,10,08,09,56,2.80
2015,10,08,09,57,1.70
2015,10,08,09,58,3.80
2015,10,08,09,59,3.00
2015,10,08,10,00,3.10
2015,10,08,10,01,3.20
2015,10,08,10,02,0.50
2015,10,08,10,03,5.20
2015,10,08,10,04,4.50
2015,10,08,10,05,2.70
2015,10,08,10,06,4.40
2015,10,08,10,07,2.70
2015,10,08,10,08,3.30
2015,10,08,10,09,4.20
2015,10,08,10,10,4.30
2015,10,08,10,11,3.00
2015,10,08,10,12,5.30
2015,10,08,10,13,5.40
2015,10,08,10,14,3.20
2015,10,08,10,15,1.40
2015,10,08,10,16,0.00
2015,10,08,10,17,1.10
2015,10,08,10,18,5.20
2015,10,08,10,19,4.70
2015,10,08,10,20,2.70
2015,10,08,10,21,4.60
2015,10,08,10,22,4.10
2015,10,08,10,23,1.60
2015,10,08,10,24,0.10
2015,10,08,10,25,1.30
2015,10,08,10,26,0.90
2015,10,08,10,27,3.00
2015,10,08,10,28,1.40
2015,10,08,10,29,0.70
2015,10,08,10,30,0.00
2015,10,08,10,31,1.50
2015,10,08,10,32,2.60
2015,10,08,10,33,2.60
2015,10,08,10,34,2.60
2015,10,08,10,35,3.20
2015,10,08,10,36,5.30
2015,10,08,10,37,1.90
2015,10,08,10,38,1.40
2015,10,08,10,39,0.30
2015,10,08,10,40,2.30
2015,10,08,10,41,1.00
2015,10,08,10,42,2.30
2015,10,08,10,43,0.80
2015,10,08,10,44,3.00
2015,10,08,10,45,0.80
2015,10,08,10,46,1.90
2015,10,08,10,47,1.40
2015,10,08,10,48,2.10
2015,10,08,10,49,1.00
2015,10,08,10,50,1.00
2015,10,08,10,51,1.70
2015,10,08,10,52,2.70
2015,10,08,10,53,0.20
2015,10,08,10,54,0.00
2015,10,08,10,55,0.00
2015,10,08,10,56,0.80
2015,10,08,10,57,0.00
2015,10,08,10,58,2.30
2015,10,08,10,59,2.40
2015,10,08,11,00,3.10
2015,10,08,11,01,4.50
2015,10,08,11,02,3.20
2015,10,08,11,03,3.40
2015,10,08,11,04,1.70
2015,10,08,11,05,0.60
2015,10,08,11,06,0.80
2015,10,08,11,07,0.50
2015,10,08,11,08,1.70
2015,10,08,11,09,2.50
2015,10,08,11,10,1.80
2015,10,08,11,11,3.20
2015,10,08,11,12,3.60
2015,10,08,11,13,2.80
2015,10,08,11,14,2.20
2015,10,08,11,15,2.40
2015,10,08,11,16,3.30
2015,10,08,11,17,3.90
2015,10,08,11,18,3.90
2015,10,08,11,19,3.90
2015,10,08,11,20,3.90
2015,10,08,11,21,4.60
2015,10,08,11,22,6.10
2015,10,08,11,23,4.80
2015,10,08,11,24,4.00
2015,10,08,11,25,2.70
2015,10,08,11,26,3.20
2015,10,08,11,27,2.90
2015,10,08,11,28,2.30
2015,10,08,11,29,3.90
2015,10,08,11,30,2.70
2015,10,08,11,31,2.30
2015,10,08,11,32,2.10
2015,10,08,11,33,0.00
2015,10,08,11,34,1.30
2015,10,08,11,35,2.00
2015,10,08,11,36,2.40
2015,10,08,11,37,2.80
2015,10,08,11,38,1.70
2015,10,08,11,39,0.50
2015,10,08,11,40,2.70
2015,10,08,11,41,6.40
2015,10,08,11,42,6.40
2015,10,08,11,43,6.40
2015,10,08,11,44,6.30
2015,10,08,11,45,1.20
2015,10,08,11,46,0.20
2015,10,08,11,47,1.80
2015,10,08,11,48,6.90
2015,10,08,11,49,5.20
2015,10,08,11,50,5.10
2015,10,08,11,51,4.40
2015,10,08,11,52,5.90
2015,10,08,11,53,1.90
2015,10,08,11,54,3.50
2015,10,08,11,55,4.00
2015,10,08,11,56,2.10
2015,10,08,11,57,5.50
2015,10,08,11,58,2.90
2015,10,08,11,59,2.80
2015,10,08,12,00,3.10
2015,10,08,12,01,0.80
2015,10,08,12,02,1.50
2015,10,08,12,03,0.00
2015,10,08,12,04,0.00
2015,10,08,12,05,0.00
2015,10,08,12,06,0.00
2015,10,08,12,07,0.00
2015,10,08,12,08,0.70
2015,10,08,12,09,4.00
2015,10,08,12,10,5.80
2015,10,08,12,11,2.40
2015,10,08,12,12,1.60
2015,10,08,12,13,4.10
2015,10,08,12,14,2.70
2015,10,08,12,15,2.10
2015,10,08,12,16,2.30
2015,10,08,12,17,4.70
2015,10,08,12,18,3.60
2015,10,08,12,19,3.60
2015,10,08,12,20,3.30
2015,10,08,12,21,2.50
2015,10,08,12,22,1.80
2015,10,08,12,23,1.00
2015,10,08,12,24,0.80
2015,10,08,12,25,1.10
2015,10,08,12,26,3.30
2015,10,08,12,27,2.40
2015,10,08,12,28,0.80
2015,10,08,12,29,4.10
2015,10,08,12,30,2.60
2015,10,08,12,31,0.80
2015,10,08,12,32,1.00
2015,10,08,12,33,4.00
2015,10,08,12,34,4.80
2015,10,08,12,35,4.40
2015,10,08,12,36,3.20
2015,10,08,12,37,3.60
2015,10,08,12,38,4.20
2015,10,08,12,39,4.90
2015,10,08,12,40,6.40
2015,10,08,12,41,4.70
2015,10,08,12,42,12.20
2015,10,08,12,43,12.80
2015,10,08,12,44,4.50
2015,10,08,12,45,7.80
2015,10,08,12,46,4.20
2015,10,08,12,47,3.40
2015,10,08,12,48,5.10
2015,10,08,12,49,3.60
2015,10,08,12,50,4.60
2015,10,08,12,51,5.80
2015,10,08,12,52,6.40
2015,10,08,12,53,5.20
2015,10,08,12,54,4.90
2015,10,08,12,55,12.30
2015,10,08,12,56,7.50
2015,10,08,12,57,8.40
2015,10,08,12,58,11.00
2015,10,08,12,59,12.70
2015,10,08,13,00,6.10
2015,10,08,13,01,9.80
2015,10,08,13,02,5.20
2015,10,08,13,03,6.70
2015,10,08,13,04,7.00
2015,10,08,13,05,8.50
2015,10,08,13,06,7.70
2015,10,08,13,07,6.40
2015,10,08,13,08,4.50
2015,10,08,13,09,6.60
2015,10,08,13,10,9.40
2015,10,08,13,11,7.30
2015,10,08,13,12,3.30
2015,10,08,13,13,5.80
2015,10,08,13,14,7.80
2015,10,08,13,15,5.70
2015,10,08,13,16,8.40
2015,10,08,13,17,9.20
2015,10,08,13,18,4.20
2015,10,08,13,19,6.80
2015,10,08,13,20,7.30
2015,10,08,13,21,12.80
2015,10,08,13,22,3.20
2015,10,08,13,23,4.40
2015,10,08,13,24,4.80
2015,10,08,13,25,4.30
2015,10,08,13,26,1.40
2015,10,08,13,27,1.00
2015,10,08,13,28,2.80
2015,10,08,13,29,5.10
2015,10,08,13,30,5.10
2015,10,08,13,31,3.50
2015,10,08,13,32,9.70
2015,10,08,13,33,4.20
2015,10,08,13,34,3.20
2015,10,08,13,35,8.50
2015,10,08,13,36,8.20
2015,10,08,13,37,6.90
2015,10,08,13,38,4.60
2015,10,08,13,39,10.00
2015,10,08,13,40,10.30
2015,10,08,13,41,6.40
2015,10,08,13,42,12.30
2015,10,08,13,43,7.40
2015,10,08,13,44,4.90
2015,10,08,13,45,7.20
2015,10,08,13,46,6.70
2015,10,08,13,47,6.10
2015,10,08,13,48,6.40
2015,10,08,13,49,10.60
2015,10,08,13,50,7.70
2015,10,08,13,51,9.50
2015,10,08,13,52,8.90
2015,10,08,13,53,11.60
2015,10,08,13,54,6.40
2015,10,08,13,55,11.20
2015,10,08,13,56,11.90
2015,10,08,13,57,5.10
2015,10,08,13,58,6.70
2015,10,08,13,59,3.40
2015,10,08,14,00,12.90
2015,10,08,14,01,6.60
2015,10,08,14,02,9.30
2015,10,08,14,03,3.50
2015,10,08,14,04,4.20
2015,10,08,14,05,4.50
2015,10,08,14,06,5.10
2015,10,08,14,07,10.10
2015,10,08,14,08,3.00
2015,10,08,14,09,2.50
2015,10,08,14,10,1.30
2015,10,08,14,11,4.30
2015,10,08,14,12,6.00
2015,10,08,14,13,7.40
2015,10,08,14,14,8.20
2015,10,08,14,15,3.00
2015,10,08,14,16,3.60
2015,10,08,14,17,4.40
2015,10,08,14,18,6.90
2015,10,08,14,19,4.20
2015,10,08,14,20,11.90
2015,10,08,14,21,2.10
2015,10,08,14,22,3.40
2015,10,08,14,23,9.20
2015,10,08,14,24,9.20
2015,10,08,14,25,6.40
2015,10,08,14,26,5.70
2015,10,08,14,27,4.90
2015,10,08,14,28,5.20
2015,10,08,14,29,11.70
2015,10,08,14,30,12.10
2015,10,08,14,31,6.70
2015,10,08,14,32,7.30
2015,10,08,14,33,1.80
2015,10,08,14,34,4.10
2015,10,08,14,35,7.00
2015,10,08,14,36,9.80
2015,10,08,14,37,2.60
2015,10,08,14,38,6.90
2015,10,08,14,39,8.10
2015,10,08,14,40,3.60
2015,10,08,14,41,9.90
2015,10,08,14,42,7.10
2015,10,08,14,43,3.40
2015,10,08,14,44,8.20
2015,10,08,14,45,9.80
2015,10,08,14,46,6.20
2015,10,08,14,47,5.60
2015,10,08,14,48,3.20
2015,10,08,14,49,8.30
2015,10,08,14,50,4.50
2015,10,08,14,51,8.50
2015,10,08,14,52,9.70
2015,10,08,14,53,7.70
2015,10,08,14,54,6.60
2015,10,08,14,55,7.10
2015,10,08,14,56,5.20
2015,10,08,14,57,6.60
2015,10,08,14,58,4.80
2015,10,08,14,59,7.20
2015,10,08,15,00,3.70
2015,10,08,15,01,2.80
2015,10,08,15,02,0.90
2015,10,08,15,03,3.50
2015,10,08,15,04,3.90
2015,10,08,15,05,6.40
2015,10,08,15,06,8.60
2015,10,08,15,07,1.80
2015,10,08,15,08,5.50
2015,10,08,15,09,2.40
2015,10,08,15,10,1.60
2015,10,08,15,11,1.90
2015,10,08,15,12,2.80
2015,10,08,15,13,2.80
2015,10,08,15,14,0.80
2015,10,08,15,15,0.20
2015,10,08,15,16,1.40
2015,10,08,15,17,1.10
2015,10,08,15,18,0.60
2015,10,08,15,19,1.30
2015,10,08,15,20,2.50
2015,10,08,15,21,2.30
2015,10,08,15,22,0.10
2015,10,08,15,23,1.50
2015,10,08,15,24,5.50
2015,10,08,15,25,3.20
2015,10,08,15,26,2.40
2015,10,08,15,27,1.80
2015,10,08,15,28,2.70
2015,10,08,15,29,1.90
2015,10,08,15,30,0.40
2015,10,08,15,31,0.90
2015,10,08,15,32,0.40
2015,10,08,15,33,0.00
2015,10,08,15,34,0.00
2015,10,08,15,35,0.30
2015,10,08,15,36,0.10
2015,10,08,15,37,0.50
2015,10,08,15,38,3.10
2015,10,08,15,39,2.30
2015,10,08,15,40,1.00
2015,10,08,15,41,3.20
2015,10,08,15,42,7.10
2015,10,08,15,43,5.50
2015,10,08,15,44,2.30
2015,10,08,15,45,1.00
2015,10,08,15,46,3.80
2015,10,08,15,47,7.50
2015,10,08,15,48,9.00
2015,10,08,15,49,5.40
2015,10,08,15,50,4.10
2015,10,08,15,51,6.00
2015,10,08,15,52,5.40
2015,10,08,15,53,7.60
2015,10,08,15,54,8.10
2015,10,08,15,55,2.40
2015,10,08,15,56,6.30
2015,10,08,15,57,6.30
2015,10,08,15,58,4.90
2015,10,08,15,59,3.20
2015,10,08,16,00,6.80
2015,10,08,16,01,3.00
2015,10,08,16,02,4.90
2015,10,08,16,03,4.80
2015,10,08,16,04,2.90
2015,10,08,16,05,7.30
2015,10,08,16,06,10.10
2015,10,08,16,07,6.10
2015,10,08,16,08,6.70
2015,10,08,16,09,6.70
2015,10,08,16,10,7.50
2015,10,08,16,11,3.20
2015,10,08,16,12,2.40
2015,10,08,16,13,2.70
2015,10,08,16,14,3.40
2015,10,08,16,15,4.00
2015,10,08,16,16,4.60
2015,10,08,16,17,6.00
2015,10,08,16,18,2.80
2015,10,08,16,19,3.20
2015,10,08,16,20,7.90
2015,10,08,16,21,6.00
2015,10,08,16,22,5.10
2015,10,08,16,23,2.20
2015,10,08,16,24,3.50
2015,10,08,16,25,3.50
2015,10,08,16,26,2.10
2015,10,08,16,27,2.00
2015,10,08,16,28,4.80
2015,10,08,16,29,5.10
2015,10,08,16,30,6.90
2015,10,08,16,31,8.60
2015,10,08,16,32,11.00
2015,10,08,16,33,2.10
2015,10,08,16,34,1.40
2015,10,08,16,35,1.90
2015,10,08,16,36,2.30
2015,10,08,16,37,1.60
2015,10,08,16,38,4.40
2015,10,08,16,39,8.60
2015,10,08,16,40,4.50
2015,10,08,16,41,2.40
2015,10,08,16,42,2.40
2015,10,08,16,43,2.50
2015,10,08,16,44,10.70
2015,10,08,16,45,7.80
2015,10,08,16,46,1.30
2015,10,08,16,47,3.30
2015,10,08,16,48,4.00
2015,10,08,16,49,4.10
2015,10,08,16,50,3.90
2015,10,08,16,51,4.00
2015,10,08,16,52,10.10
2015,10,08,16,53,7.90
2015,10,08,16,54,5.90
2015,10,08,16,55,3.50
2015,10,08,16,56,4.10
2015,10,08,16,57,3.10
2015,10,08,16,58,2.40
2015,10,08,16,59,1.80
2015,10,08,17,00,0.90
2015,10,08,17,01,1.80
2015,10,08,17,02,3.00
2015,10,08,17,03,0.80
2015,10,08,17,04,0.20
2015,10,08,17,05,1.60
2015,10,08,17,06,3.20
2015,10,08,17,07,5.00
2015,10,08,17,08,5.40
2015,10,08,17,09,1.70
2015,10,08,17,10,1.60
2015,10,08,17,11,3.20
2015,10,08,17,12,6.60
2015,10,08,17,13,2.70
2015,10,08,17,14,1.30
2015,10,08,17,15,3.10
2015,10,08,17,16,2.70
2015,10,08,17,17,1.10
2015,10,08,17,18,1.40
2015,10,08,17,19,5.40
2015,10,08,17,20,4.40
2015,10,08,17,21,0.10
2015,10,08,17,22,1.40
2015,10,08,17,23,3.60
2015,10,08,17,24,5.20
2015,10,08,17,25,4.90
2015,10,08,17,26,2.00
2015,10,08,17,27,1.90
2015,10,08,17,28,3.60
2015,10,08,17,29,2.60
2015,10,08,17,30,1.00
2015,10,08,17,31,3.50
2015,10,08,17,32,4.50
2015,10,08,17,33,3.00
2015,10,08,17,34,2.30
2015,10,08,17,35,1.30
2015,10,08,17,36,1.70
2015,10,08,17,37,2.80
2015,10,08,17,38,4.00
2015,10,08,17,39,6.90
2015,10,08,17,40,6.90
2015,10,08,17,41,4.10
2015,10,08,17,42,1.80
2015,10,08,17,43,1.70
2015,10,08,17,44,1.30
2015,10,08,17,45,1.60
2015,10,08,17,46,3.40
2015,10,08,17,47,1.90
2015,10,08,17,48,3.50
2015,10,08,17,49,6.60
2015,10,08,17,50,6.40
2015,10,08,17,51,4.60
2015,10,08,17,52,5.10
2015,10,08,17,53,5.80
2015,10,08,17,54,4.60
2015,10,08,17,55,3.00
2015,10,08,17,56,4.30
2015,10,08,17,57,3.80